Time,TemperatureF,DewpointF,PressureIn,WindDirection,WindDirectionDegrees,WindSpeedMPH,WindSpeedGustMPH,Humidity,HourlyPrecipIn,Conditions,Clouds,dailyrainin,SoftwareType,DateUTC
2013-03-04 01:40:00,45.0,-99.9,-100.00,SW,236,0.0,0.0,-999,-99.99,,,-99.99,,2013-03-04 09:40:00,
2013-03-04 02:22:00,45.0,-99.9,-100.00,SW,236,0.0,0.0,-999,-99.99,,,-99.99,,2013-03-04 10:22:00,
2013-03-04 02:32:00,45.0,-99.9,-100.00,SW,236,0.0,0.0,-999,-99.99,,,-99.99,,2013-03-04 10:32:00,
2013-03-04 04:40:00,42.0,-99.9,-100.00,West,274,0.0,0.0,-999,-99.99,,,-99.99,,2013-03-04 12:40:00,
2013-03-04 05:22:00,42.0,-99.9,-100.00,West,274,0.0,0.0,-999,-99.99,,,-99.99,,2013-03-04 13:22:00,
2013-03-04 05:32:00,42.0,-99.9,-100.00,West,274,0.0,0.0,-999,-99.99,,,-99.99,,2013-03-04 13:32:00,
2013-03-04 07:40:00,47.0,-99.9,-100.00,West,269,0.0,0.0,-999,-99.99,,,-99.99,,2013-03-04 15:40:00,
2013-03-04 08:22:00,47.0,-99.9,-100.00,West,269,0.0,0.0,-999,-99.99,,,-99.99,,2013-03-04 16:22:00,
2013-03-04 08:32:00,47.0,-99.9,-100.00,West,269,0.0,0.0,-999,-99.99,,,-99.99,,2013-03-04 16:32:00,
2013-03-04 09:22:00,54.0,-99.9,-100.00,WSW,243,0.0,0.0,-999,-99.99,,,-99.99,,2013-03-04 17:22:00,
2013-03-04 12:22:00,62.0,-99.9,-100.00,SSW,193,0.0,0.0,-999,-99.99,,,-99.99,,2013-03-04 20:22:00,
2013-03-04 15:22:00,60.0,-99.9,-100.00,SW,227,0.0,0.0,-999,-99.99,,,-99.99,,2013-03-04 23:22:00,
2013-03-04 15:32:00,60.0,-99.9,-100.00,WSW,244,0.0,0.0,-999,-99.99,,,-99.99,,2013-03-04 23:32:00,
2013-03-04 15:42:00,60.0,-99.9,-100.00,WSW,244,0.0,0.0,-999,-99.99,,,-99.99,,2013-03-04 23:42:00,
2013-03-04 15:53:00,60.0,-99.9,-100.00,WSW,244,0.0,0.0,-999,-99.99,,,-99.99,,2013-03-04 23:53:00,
2013-03-04 17:02:00,59.0,-99.9,-100.00,WSW,237,0.0,0.0,-999,-99.99,,,-99.99,,2013-03-05 01:02:00,
2013-03-04 17:12:00,59.0,-99.9,-100.00,WSW,237,0.0,0.0,-999,-99.99,,,-99.99,,2013-03-05 01:12:00,
2013-03-04 17:22:00,59.0,-99.9,-100.00,WSW,237,0.0,0.0,-999,-99.99,,,-99.99,,2013-03-05 01:22:00,
2013-03-04 19:40:00,41.0,-99.9,-100.00,North,-999,-999.0,-999.0,-999,-99.99,,,-99.99,,2013-03-05 03:40:00,
2013-03-04 20:02:00,42.0,-99.9,-100.00,North,9,0.0,0.0,-999,-99.99,,,-99.99,,2013-03-05 04:02:00,
2013-03-04 20:12:00,42.0,-99.9,-100.00,North,9,0.0,0.0,-999,-99.99,,,-99.99,,2013-03-05 04:12:00,
2013-03-04 20:22:00,41.0,-99.9,-100.00,North,-999,-999.0,-999.0,-999,-99.99,,,-99.99,,2013-03-05 04:22:00,
2013-03-04 20:32:00,41.0,-99.9,-100.00,North,-999,-999.0,-999.0,-999,-99.99,,,-99.99,,2013-03-05 04:32:00,
2013-03-04 21:23:00,41.0,-99.9,-100.00,ENE,72,0.0,0.0,-999,-99.99,,,-99.99,,2013-03-05 05:23:00,
2013-03-04 21:32:00,41.0,-99.9,-100.00,ENE,72,0.0,0.0,-999,-99.99,,,-99.99,,2013-03-05 05:32:00,
2013-03-04 21:40:00,42.0,-99.9,-100.00,NNE,24,0.0,0.0,-999,-99.99,,,-99.99,,2013-03-05 05:40:00,
2013-03-04 22:22:00,42.0,-99.9,-100.00,NNE,24,0.0,0.0,-999,-99.99,,,-99.99,,2013-03-05 06:22:00,
2013-03-04 22:32:00,42.0,-99.9,-100.00,NNE,24,0.0,0.0,-999,-99.99,,,-99.99,,2013-03-05 06:32:00,
2013-03-04 23:01:00,42.0,-99.9,-100.00,North,6,0.0,0.0,-999,-99.99,,,-99.99,,2013-03-05 07:01:00,
2013-03-04 23:11:00,42.0,-99.9,-100.00,North,6,0.0,0.0,-999,-99.99,,,-99.99,,2013-03-05 07:11:00,
2013-03-04 23:22:00,42.0,-99.9,-100.00,North,6,0.0,0.0,-999,-99.99,,,-99.99,,2013-03-05 07:22:00,
2013-03-04 23:40:00,40.0,-99.9,-100.00,North,354,0.0,0.0,-999,-99.99,,,-99.99,,2013-03-05 07:40:00,